Naples, FL

8:37 AM EDT on April 23, 2017 (GMT -0400)
Naples Municipal

Weather History for KAPF - December, 2013

Change the Weather History Date:

Saturday, December 21, 2013

  Actual Average Record
Temperature  
Mean Temperature 77 °F 66 °F  
Max Temperature 85 °F 76 °F 87 °F (1948)
Min Temperature 69 °F 56 °F 37 °F (2000)
Cooling Degree Days 12 3  
Month to date cooling degree days 155 92  
Year to date cooling degree days 4098 3911  
Growing Degree Days 27 (Base 50)    
Moisture  
Dew Point 69 °F    
Average Humidity 79    
Maximum Humidity 97    
Minimum Humidity 61    
Precipitation  
Precipitation 0.00 in 0.05 in 1.57 in (1994)
Month to date precipitation 0.09 1.01  
Year to date precipitation 49.09 51.45  
Snow  
Snow 0.00 in - - ()
Month to date snowfall 0.0  
Since 1 July snowfall 0.0  
Snow Depth 0.00 in    
Sea Level Pressure  
Sea Level Pressure 30.08 in    
Wind  
Wind Speed 10 mph (ESE)    
Max Wind Speed 22 mph    
Max Gust Speed 29 mph    
Visibility 10 miles    
Events      
T = Trace of Precipitation, MM = Missing Value Source: NWS Daily Summary

Daily Weather History Graph

Daily Weather History Graph

Search for Another Location

Airport or City:

Trip Planner

Search our weather history database for the weather conditions in past years. The results will help you decide how hot, cold, wet, or windy it might be!

Date:

Astronomy

Dec. 21, 2013 Rise Set
Actual Time 7:10 AM EST 5:40 PM EST
Civil Twilight 6:45 AM EST 6:05 PM EST
Nautical Twilight 6:16 AM EST 6:34 PM EST
Astronomical Twilight 5:47 AM EST 7:02 PM EST
Moon 9:34 PM EST (12/21) 9:54 AM EST (12/21)
Length of Visible Light 11h 20m
Length of Day
10h 30m
Waning Gibbous, 84% of the Moon is Illuminated
Dec 21
Waning Gibbous
Dec 25
Last Quarter
Jan 1
New
Jan 7
First Quarter
Jan 15
Full

Hourly Weather History & Observations

Time (EST) Temp. Heat Index Dew Point Humidity Pressure Visibility Wind Dir Wind Speed Gust Speed Precip Events Conditions
12:53 AM 71.1 °F - 68.0 °F 90% 30.11 in 10.0 mi East 8.1 mph - N/A   Clear
1:53 AM 71.1 °F - 68.0 °F 90% 30.10 in 10.0 mi ESE 6.9 mph - N/A   Clear
2:53 AM 70.0 °F - 68.0 °F 93% 30.09 in 10.0 mi ESE 6.9 mph - N/A   Clear
3:53 AM 70.0 °F - 68.0 °F 93% 30.07 in 10.0 mi ESE 9.2 mph - N/A   Clear
4:53 AM 71.1 °F - 69.1 °F 93% 30.07 in 10.0 mi East 10.4 mph - N/A   Clear
5:53 AM 71.1 °F - 69.1 °F 93% 30.08 in 9.0 mi East 9.2 mph - N/A   Clear
6:53 AM 71.1 °F - 69.1 °F 93% 30.09 in 9.0 mi East 8.1 mph - N/A   Clear
7:53 AM 72.0 °F - 70.0 °F 93% 30.10 in 9.0 mi East 8.1 mph - N/A   Clear
8:53 AM 75.0 °F - 71.1 °F 87% 30.11 in 10.0 mi ESE 11.5 mph 18.4 mph N/A   Partly Cloudy
9:53 AM 78.1 °F - 71.1 °F 79% 30.12 in 10.0 mi ESE 11.5 mph - N/A   Scattered Clouds
10:53 AM 81.0 °F 84.4 °F 70.0 °F 69% 30.12 in 10.0 mi SE 15.0 mph 25.3 mph N/A   Scattered Clouds
11:53 AM 82.9 °F 86.5 °F 69.1 °F 63% 30.09 in 10.0 mi ESE 13.8 mph 23.0 mph N/A   Scattered Clouds
12:53 PM 84.0 °F 88.4 °F 70.0 °F 63% 30.06 in 10.0 mi SE 12.7 mph 21.9 mph N/A   Scattered Clouds
1:53 PM 84.9 °F 89.4 °F 70.0 °F 61% 30.03 in 10.0 mi SSE 15.0 mph 19.6 mph N/A   Scattered Clouds
2:53 PM 84.0 °F 88.4 °F 70.0 °F 63% 30.02 in 10.0 mi SE 16.1 mph - N/A   Partly Cloudy
3:53 PM 82.9 °F 87.0 °F 70.0 °F 65% 30.02 in 10.0 mi SSE 13.8 mph - N/A   Scattered Clouds
4:53 PM 81.0 °F 84.1 °F 69.1 °F 67% 30.03 in 10.0 mi SSE 15.0 mph - N/A   Partly Cloudy
5:53 PM 78.1 °F - 70.0 °F 76% 30.05 in 10.0 mi SSE 8.1 mph - N/A   Clear
6:53 PM 75.9 °F - 70.0 °F 82% 30.07 in 10.0 mi SE 3.5 mph - N/A   Clear
7:53 PM 75.9 °F - 69.1 °F 79% 30.08 in 10.0 mi ESE 6.9 mph - N/A   Clear
8:53 PM 73.0 °F - 68.0 °F 84% 30.09 in 10.0 mi East 5.8 mph - N/A   Scattered Clouds
9:53 PM 73.0 °F - 69.1 °F 87% 30.09 in 10.0 mi East 4.6 mph - N/A   Clear
10:53 PM 72.0 °F - 69.1 °F 91% 30.09 in 10.0 mi East 5.8 mph - N/A   Clear
11:53 PM 72.0 °F - 69.1 °F 91% 30.08 in 10.0 mi East 8.1 mph - N/A   Clear